User: anonymous
Location: Leeds
(37.2390°N, 113.3580°W)
Time: 10:22:07
(UTC-06:00)
Language:

SL-08 RB Rocket - Orbit

View from above orbital plane
View from above orbital plane
View from above satellite
View from above satellite

Ground track
Ground track

The orbit data is extracted from the following two-line orbital elements,

1 26387U 00033D   14265.25905456  .00000481  00000-0  93578-4 0  6172
2 26387 098.0966 331.8749 0025672 265.1102 135.4302 14.67380131761321
Epoch (UTC): 22 September 2014 06:13:02
Eccentricity: 0.0025672
inclination: 98.0966°
perigee height: 651 km
apogee height: 687 km
right ascension of ascending node: 331.8749°
argument of perigee: 265.1102°
revolutions per day: 14.67380131
mean anomaly at epoch: 135.4302°
orbit number at epoch: 76132

The dashed part of the orbit path shows where the satellite is in the earth's shadow,  

DLR